Weather History for Ponce, PR

Change the Weather History Date:

Thursday, March 7, 2013

  Actual Average Record
Temperature  
Mean Temperature 78 °F -  
Max Temperature 87 °F 84 °F 89 °F (1997)
Min Temperature 69 °F 67 °F 62 °F (1999)
Cooling Degree Days 13    
Growing Degree Days 28 (Base 50)    
Moisture  
Dew Point 69 °F    
Average Humidity 81    
Maximum Humidity 100    
Minimum Humidity 55    
Precipitation  
Precipitation 0.00 in - - ()
Sea Level Pressure  
Sea Level Pressure 30.01 in    
Wind  
Wind Speed 3 mph (SW)    
Max Wind Speed 12 mph    
Max Gust Speed 17 mph    
Visibility 9 miles    
Events Rain    
Averages and records for this station are not official NWS values.
T = Trace of Precipitation, MM = Missing Value Source: NWS Daily Summary

Daily Weather History Graph

Daily Weather History Graph

Search for Another Location

Airport:

Trip Planner

Search our weather history database for the weather conditions in past years. The results will help you decide how hot, cold, wet, or windy it might be!

Date:

Astronomy

Mar. 07, 2013 Rise Set
Actual Time 6:40 AM AST 6:34 PM AST
Civil Twilight 6:18 AM AST 6:55 PM AST
Nautical Twilight 5:53 AM AST 7:21 PM AST
Astronomical Twilight 5:28 AM AST 7:46 PM AST
Moon 3:06 AM AST (3/7) 2:45 PM AST (3/7)
Length of Visible Light 12h 37m
Length of Day
11h 53m
Waning Crescent, 20% of the Moon is Illuminated
Mar 7
Waning Crescent
Mar 11
New
Mar 19
First Quarter
Mar 27
Full
Apr 3
Last Quarter

Hourly Weather History & Observations

Time (AST) Temp. Heat Index Dew Point Humidity Pressure Visibility Wind Dir Wind Speed Gust Speed Precip Events Conditions
12:50 AM 73.4 °F - 66.2 °F 78% - - North - - N/A   Partly Cloudy
1:50 AM 73.4 °F - 66.2 °F 78% 30.00 in 8.0 mi Calm Calm - N/A   Partly Cloudy
2:50 AM 69.8 °F - 66.2 °F 88% 29.98 in 8.0 mi Calm Calm - N/A   Partly Cloudy
3:50 AM 69.8 °F - 66.2 °F 88% 29.98 in 8.0 mi Calm Calm - N/A   Scattered Clouds
4:50 AM 69.8 °F - 66.2 °F 88% 29.98 in 8.0 mi Calm Calm - N/A   Scattered Clouds
5:50 AM 69.8 °F - 66.2 °F 88% 29.99 in 8.0 mi Calm Calm - N/A   Partly Cloudy
6:50 AM 69.8 °F - 66.2 °F 88% 30.01 in 10.0 mi Calm Calm - N/A   Partly Cloudy
7:50 AM 73.4 °F - 68.0 °F 83% 30.03 in 10.0 mi Calm Calm - N/A   Partly Cloudy
8:50 AM 82.4 °F 86.3 °F 69.8 °F 66% 30.04 in 10.0 mi Calm Calm - N/A   Partly Cloudy
9:50 AM 82.4 °F 87.2 °F 71.6 °F 70% 30.06 in 10.0 mi South 6.9 mph - N/A   Partly Cloudy
10:50 AM 84.2 °F 88.4 °F 69.8 °F 62% 30.05 in 10.0 mi SSE 11.5 mph - N/A   Partly Cloudy
11:50 AM 84.2 °F 88.4 °F 69.8 °F 62% 30.02 in 10.0 mi ESE 6.9 mph - N/A   Partly Cloudy
12:50 PM 87.8 °F 92.6 °F 69.8 °F 55% 30.00 in 10.0 mi SSW 11.5 mph - N/A   Partly Cloudy
3:50 PM 82.4 °F 87.2 °F 71.6 °F 70% 29.96 in 10.0 mi South 11.5 mph - N/A   Mostly Cloudy
4:50 PM 82.4 °F 87.2 °F 71.6 °F 70% 29.98 in 10.0 mi NW 11.5 mph 17.3 mph N/A   Mostly Cloudy
6:50 PM 73.4 °F - 71.6 °F 94% 30.02 in 8.0 mi North 5.8 mph - N/A Rain Light Rain
7:50 PM 73.4 °F - 71.6 °F 94% 30.03 in 8.0 mi NW 5.8 mph - N/A Rain Light Rain
8:50 PM 73.4 °F - 71.6 °F 94% 30.03 in 8.0 mi NNW 5.8 mph - N/A   Overcast
9:50 PM 73.4 °F - 71.6 °F 94% 30.03 in 8.0 mi Calm Calm - N/A   Overcast
10:50 PM 73.4 °F - 71.6 °F 94% 30.04 in 8.0 mi Calm Calm - N/A   Mostly Cloudy
11:50 PM 71.6 °F - 71.6 °F 100% 30.03 in 8.0 mi Calm Calm - N/A   Scattered Clouds